When you browse on this site, cookies collect data to enhance your experience and personalize the content and advertising you see.
Visit our Privacy Policy to learn more. By continuing to use the site, you agree to this use of cookies and data.
  • In Sweden
  • List of Countries
  • For 7 days
  • Water Temperature
  • Weather Map
  • Weather Widgets
  • user-avatar
    Login

    Hourly Weather Goiania

    Today, 30 March, Monday

    Time Temperature Precipitation Wind Pressure Humidity
    00:00 +23°C° 0 mm 1 mps 700 mmHg 92%
    01:00 +22°C° 0 mm 1 mps 700 mmHg 92%
    02:00 +22°C° 0 mm 1 mps 699 mmHg 93%
    03:00 +21°C° 0 mm 1 mps 699 mmHg 93%
    04:00 +21°C° 0 mm 1 mps 699 mmHg 94%
    05:00 +21°C° 0 mm 1 mps 699 mmHg 94%
    06:00 +20°C° 0 mm 1 mps 699 mmHg 94%
    07:00 +21°C° 0 mm 2 mps 700 mmHg 91%
    08:00 +24°C° 0 mm 2 mps 700 mmHg 87%
    09:00 +25°C° 0 mm 3 mps 701 mmHg 83%
    10:00 +27°C° 0 mm 3 mps 701 mmHg 78%
    11:00 +28°C° 0 mm 3 mps 701 mmHg 72%
    12:00 +30°C° 0 mm 3 mps 701 mmHg 67%
    13:00 +30°C° 0 mm 2 mps 700 mmHg 66%
    14:00 +30°C° 0 mm 2 mps 699 mmHg 64%
    15:00 +31°C° 0 mm 2 mps 698 mmHg 63%
    16:00 +29°C° 0 mm 2 mps 698 mmHg 68%
    17:00 +28°C° 0 mm 2 mps 698 mmHg 74%
    18:00 +27°C° 0 mm 2 mps 697 mmHg 79%
    19:00 +26°C° 0 mm 2 mps 698 mmHg 81%
    20:00 +25°C° 0 mm 1 mps 698 mmHg 84%
    21:00 +24°C° 0 mm 1 mps 698 mmHg 87%
    22:00 +23°C° 0 mm 1 mps 698 mmHg 88%
    23:00 +23°C° 0 mm 1 mps 698 mmHg 89%

    Tomorrow, 31 March, Tuesday

    Time Temperature Precipitation Wind Pressure Humidity
    00:00 +23°C° 0 mm 1 mps 698 mmHg 90%
    01:00 +22°C° 0 mm 1 mps 698 mmHg 91%
    02:00 +22°C° 0 mm 1 mps 698 mmHg 92%
    03:00 +22°C° 0 mm 1 mps 698 mmHg 93%
    04:00 +22°C° 0 mm 1 mps 698 mmHg 93%
    05:00 +21°C° 0 mm 1 mps 698 mmHg 93%
    06:00 +21°C° 0 mm 1 mps 698 mmHg 93%
    07:00 +23°C° 0 mm 1 mps 698 mmHg 89%
    08:00 +25°C° 0 mm 1 mps 699 mmHg 84%
    09:00 +26°C° 0 mm 2 mps 700 mmHg 80%
    10:00 +28°C° 0 mm 2 mps 700 mmHg 74%
    11:00 +29°C° 0 mm 2 mps 699 mmHg 68%
    12:00 +30°C° 0 mm 2 mps 699 mmHg 62%
    13:00 +30°C° 0.1 mm 1 mps 699 mmHg 62%
    14:00 +30°C° 0.1 mm 1 mps 698 mmHg 62%
    15:00 +31°C° 0.1 mm 1 mps 697 mmHg 62%
    16:00 +29°C° 0.1 mm 1 mps 697 mmHg 67%
    17:00 +28°C° 0.1 mm 1 mps 697 mmHg 72%
    18:00 +27°C° 0.1 mm 1 mps 697 mmHg 77%
    19:00 +26°C° 0.1 mm 1 mps 697 mmHg 80%
    20:00 +25°C° 0.1 mm 1 mps 697 mmHg 83%
    21:00 +24°C° 0.1 mm 1 mps 697 mmHg 86%
    22:00 +24°C° 0.2 mm 1 mps 697 mmHg 87%
    23:00 +24°C° 0.2 mm 1 mps 698 mmHg 88%

    Day after tomorrow, 1 April, Wednesday

    Time Temperature Precipitation Wind Pressure Humidity
    00:00 +23°C° 0.2 mm 2 mps 698 mmHg 90%
    01:00 +23°C° 0 mm 1 mps 697 mmHg 89%
    02:00 +22°C° 0 mm 1 mps 697 mmHg 89%
    03:00 +22°C° 0 mm 1 mps 697 mmHg 89%
    04:00 +22°C° 0 mm 1 mps 697 mmHg 89%
    05:00 +22°C° 0 mm 1 mps 697 mmHg 88%
    06:00 +21°C° 0 mm 1 mps 697 mmHg 87%
    07:00 +23°C° 0 mm 2 mps 698 mmHg 84%
    08:00 +24°C° 0 mm 2 mps 699 mmHg 82%
    09:00 +25°C° 0 mm 2 mps 699 mmHg 79%
    10:00 +27°C° 0 mm 2 mps 699 mmHg 72%
    11:00 +28°C° 0 mm 2 mps 699 mmHg 65%
    12:00 +30°C° 0 mm 2 mps 699 mmHg 57%
    13:00 +30°C° 0 mm 2 mps 699 mmHg 56%
    14:00 +30°C° 0 mm 2 mps 698 mmHg 55%
    15:00 +31°C° 0 mm 1 mps 698 mmHg 54%
    16:00 +29°C° 0 mm 1 mps 697 mmHg 59%
    17:00 +28°C° 0 mm 1 mps 697 mmHg 65%
    18:00 +26°C° 0 mm 1 mps 697 mmHg 71%
    19:00 +25°C° 0 mm 1 mps 697 mmHg 74%
    20:00 +24°C° 0 mm 1 mps 698 mmHg 77%
    21:00 +21°C° 0 mm 0 mps 698 mmHg 80%
    22:00 +21°C° 0 mm 0 mps 698 mmHg 81%
    23:00 +21°C° 0 mm 0 mps 699 mmHg 83%

    2 April, Thursday

    Time Temperature Precipitation Wind Pressure Humidity
    00:00 +20°C° 0 mm 0 mps 699 mmHg 84%
    01:00 +20°C° 0 mm 0 mps 698 mmHg 85%
    02:00 +22°C° 0 mm 1 mps 698 mmHg 86%
    03:00 +22°C° 0 mm 1 mps 698 mmHg 88%
    04:00 +21°C° 0 mm 1 mps 698 mmHg 88%
    05:00 +21°C° 0 mm 1 mps 698 mmHg 89%
    06:00 +21°C° 0 mm 1 mps 698 mmHg 90%
    07:00 +23°C° 0 mm 1 mps 699 mmHg 85%
    08:00 +25°C° 0 mm 1 mps 700 mmHg 81%
    09:00 +27°C° 0 mm 2 mps 701 mmHg 77%
    10:00 +28°C° 0.1 mm 2 mps 700 mmHg 73%
    11:00 +29°C° 0.1 mm 2 mps 700 mmHg 69%
    12:00 +30°C° 0.1 mm 2 mps 700 mmHg 65%
    13:00 +31°C° 0.2 mm 2 mps 700 mmHg 65%
    14:00 +31°C° 0.2 mm 2 mps 699 mmHg 65%
    15:00 +31°C° 0.2 mm 2 mps 698 mmHg 65%
    16:00 +30°C° 0.2 mm 1 mps 698 mmHg 70%
    17:00 +28°C° 0.2 mm 1 mps 698 mmHg 75%
    18:00 +27°C° 0.2 mm 1 mps 697 mmHg 80%
    19:00 +26°C° 0.1 mm 1 mps 698 mmHg 82%
    20:00 +25°C° 0.1 mm 1 mps 698 mmHg 85%
    21:00 +22°C° 0.1 mm 0 mps 698 mmHg 87%
    22:00 +22°C° 0.2 mm 0 mps 699 mmHg 88%
    23:00 +22°C° 0.2 mm 0 mps 699 mmHg 89%

    3 April, Friday

    Time Temperature Precipitation Wind Pressure Humidity
    00:00 +24°C° 0.2 mm 1 mps 699 mmHg 90%
    01:00 +21°C° 0.2 mm 0 mps 699 mmHg 90%
    02:00 +21°C° 0.2 mm 0 mps 698 mmHg 90%
    03:00 +21°C° 0.2 mm 0 mps 698 mmHg 91%
    04:00 +20°C° 0 mm 0 mps 698 mmHg 91%
    05:00 +20°C° 0 mm 0 mps 698 mmHg 91%
    06:00 +20°C° 0 mm 0 mps 697 mmHg 92%
    07:00 +23°C° 0 mm 1 mps 698 mmHg 88%
    08:00 +25°C° 0 mm 1 mps 698 mmHg 84%
    09:00 +27°C° 0 mm 1 mps 699 mmHg 80%
    10:00 +28°C° 0 mm 1 mps 699 mmHg 74%
    11:00 +29°C° 0 mm 2 mps 699 mmHg 68%
    12:00 +30°C° 0 mm 3 mps 698 mmHg 62%
    13:00 +30°C° 0 mm 3 mps 698 mmHg 61%
    14:00 +30°C° 0 mm 3 mps 697 mmHg 61%
    15:00 +30°C° 0 mm 3 mps 696 mmHg 61%
    16:00 +29°C° 0 mm 3 mps 696 mmHg 67%
    17:00 +28°C° 0 mm 2 mps 696 mmHg 72%
    18:00 +26°C° 0 mm 2 mps 696 mmHg 78%
    19:00 +25°C° 0 mm 1 mps 696 mmHg 80%
    20:00 +24°C° 0 mm 1 mps 696 mmHg 82%
    21:00 +24°C° 0 mm 1 mps 697 mmHg 85%
    22:00 +23°C° 0.2 mm 1 mps 697 mmHg 87%
    23:00 +23°C° 0.2 mm 1 mps 697 mmHg 89%

    4 April, Saturday

    Time Temperature Precipitation Wind Pressure Humidity
    00:00 +23°C° 0.2 mm 1 mps 697 mmHg 91%
    01:00 +22°C° 0 mm 1 mps 697 mmHg 91%
    02:00 +22°C° 0 mm 1 mps 697 mmHg 91%
    03:00 +22°C° 0 mm 1 mps 696 mmHg 91%
    04:00 +22°C° 0 mm 1 mps 696 mmHg 91%
    05:00 +22°C° 0 mm 1 mps 697 mmHg 91%
    06:00 +22°C° 0 mm 1 mps 697 mmHg 91%
    07:00 +23°C° 0 mm 1 mps 697 mmHg 87%
    08:00 +25°C° 0 mm 1 mps 698 mmHg 82%
    09:00 +27°C° 0 mm 2 mps 699 mmHg 78%
    10:00 +28°C° 0 mm 2 mps 699 mmHg 73%
    11:00 +29°C° 0 mm 2 mps 699 mmHg 68%
    12:00 +30°C° 0 mm 2 mps 699 mmHg 63%
    13:00 +31°C° 0.2 mm 2 mps 698 mmHg 64%
    14:00 +31°C° 0.2 mm 2 mps 697 mmHg 65%
    15:00 +31°C° 0.2 mm 2 mps 697 mmHg 66%
    16:00 +29°C° 0.9 mm 2 mps 696 mmHg 72%
    17:00 +28°C° 0.9 mm 1 mps 696 mmHg 79%
    18:00 +26°C° 0.9 mm 1 mps 696 mmHg 85%
    19:00 +25°C° 0.4 mm 1 mps 696 mmHg 86%
    20:00 +23°C° 0.4 mm 0 mps 697 mmHg 87%
    21:00 +22°C° 0.4 mm 0 mps 697 mmHg 88%
    22:00 +22°C° 0.7 mm 0 mps 698 mmHg 89%
    23:00 +22°C° 0.7 mm 0 mps 698 mmHg 89%
    Show more